Lid_Strength_Index
1 1 1 1 1 1 1 1 3 6 5 2 2 1 -0 -1 -1 -1 -1 0 0 1 1 0 0 -0 -0 -1 -0 -0 -0 -0 -0 -0 -0 -0 -1 -1
1 1 1 1 1 1 1 1 1 3 5 2 2 1 -0 -0 -1 -1 -1 -0 0 1 1 1 0 0 -0 -0 0 0 0 0 -0 0 0 0 -0 -0
1 1 1 1 1 1 1 1 2 2 4 3 1 0 1 0 -0 -1 -1 -1 -0 2 2 2 2 1 0 1 1 1 1 1 1 0 0 0 0 0
1 1 1 1 1 1 1 1 1 1 2 4 2 1 1 0 0 0 0 -0 -0 1 1 2 2 2 2 2 1 1 1 2 1 1 1 1 1 1
1 1 1 1 2 1 1 1 1 1 1 2 3 1 1 1 1 0 0 0 -0 -0 1 2 2 2 2 2 2 2 3 4 4 3 3 3 2 2
1 1 1 1 1 1 1 1 1 2 2 2 2 2 2 1 1 2 2 1 1 -0 0 0 1 2 2 3 3 3 5 5 5 5 4 4 3 3
1 1 1 1 1 1 1 1 1 2 2 3 3 3 2 2 3 2 2 2 1 1 1 0 0 0 1 3 2 3 5 5 6 6 6 6 6 5
1 1 1 1 1 2 3 2 1 2 2 3 3 3 3 2 2 2 2 3 4 0 1 1 0 1 0 0 2 4 5 5 6 6 6 7 7 6
1 1 1 1 1 1 2 3 3 3 2 1 3 2 2 2 1 2 2 2 3 1 1 3 1 1 0 1 4 5 6 6 7 7 7 7 7 7
1 1 1 1 1 1 1 1 1 1 1 1 1 1 1 0 1 1 1 2 1 1 1 4 1 2 1 2 4 5 6 7 7 8 7 8 8 7
1 1 1 1 2 3 1 2 2 1 1 4 4 3 3 3 2 1 2 3 3 3 1 2 2 2 1 3 4 5 7 7 8 7 7 7 8 7
1 1 2 1 3 4 1 2 2 2 1 1 1 2 3 2 3 1 1 3 3 4 1 2 2 2 3 1 3 5 6 7 8 8 7 7 7 6
2 2 1 4 5 5 5 1 2 1 1 1 1 1 1 1 1 0 0 1 3 3 1 1 2 2 2 3 2 4 4 6 6 6 8 8 8 7
2 1 1 4 6 7 6 5 5 5 2 2 2 2 2 2 1 0 0 0 -0 1 0 0 2 2 3 3 4 1 1 4 3 3 3 5 8 8
1 2 4 5 7 6 6 5 5 2 2 2 2 2 2 1 0 1 0 0 0 -0 -0 -0 1 1 2 3 3 2 2 2 2 1 0 1 3 5
2 1 1 3 3 2 2 3 2 1 2 2 2 1 1 1 2 1 2 1 2 2 0 -0 0 1 2 2 2 3 2 3 1 1 1 0 0 1
3 2 2 2 2 2 2 1 1 1 2 2 2 2 2 2 2 1 2 2 3 3 2 1 0 0 1 1 3 2 2 2 1 1 1 2 1 1
4 3 3 3 3 3 3 2 2 2 2 2 2 2 2 2 2 2 2 2 3 3 3 2 2 2 2 1 2 2 2 2 1 1 1 2 2 2
2 3 3 3 2 2 2 2 2 2 1 2 2 2 2 2 2 2 2 2 3 3 2 2 2 3 5 5 2 4 2 2 2 2 1 2 2 2
3 2 3 2 2 2 2 2 2 2 2 2 2 2 2 2 3 3 3 3 3 3 3 2 2 3 4 4 4 2 6 1 2 2 2 3 6 5
2 2 2 2 2 2 2 2 2 2 2 2 2 2 2 2 3 2 3 5 4 3 3 3 2 3 1 1 3 3 2 7 3 1 2 3 4 4
2 2 2 2 1 2 2 2 2 2 2 2 2 2 2 2 2 2 2 3 3 3 3 2 1 1 2 3 4 3 2 4 6 7 7 4 2 4
2 2 2 2 1 1 1 2 2 2 2 2 2 2 2 2 2 2 2 2 2 3 3 3 2 2 2 3 3 3 3 3 5 5 6 7 6 6